Theta_e
311 311 311 312 311 310 309 308 309 309 310 310 310 312 316 317 318 317 316 314 313 314 315 316 316 317 318 319 319 319 319 320 320 321 322 323 323 324 325 326 327 326 327 327 327 327 326 326 326 326 325 325 324 324 324 323 323 323 323 323 323 322 322 321 321 321 322 322 322 321 321 321 321 320 320 320 320 320 320 320 320 319 319 319 320
311 311 312 312 311 310 310 309 309 309 309 310 310 311 314 316 317 318 317 315 313 312 313 314 315 316 317 317 318 319 319 319 320 320 321 321 322 323 324 325 325 326 326 326 326 326 326 326 326 326 325 325 325 325 324 324 324 324 324 324 323 323 323 323 322 322 322 322 322 321 321 321 321 320 320 320 320 320 320 320 319 319 319 320 320
312 313 313 312 311 310 309 309 310 310 310 310 311 311 312 314 316 317 318 317 315 313 312 312 312 314 315 316 317 318 318 319 320 320 321 321 321 321 322 323 324 324 325 325 325 326 326 326 326 326 326 325 325 325 325 325 325 324 324 324 324 324 324 324 323 323 323 322 322 322 322 321 321 321 320 320 320 320 320 320 320 319 319 319 319
313 313 311 310 309 309 310 310 310 310 311 311 312 312 313 314 315 316 317 318 317 316 314 312 312 312 312 314 315 316 317 318 319 319 320 320 320 320 321 322 323 324 324 324 325 326 326 326 325 325 325 325 325 325 325 325 325 324 324 324 324 324 324 324 324 323 323 322 322 322 321 321 321 320 320 320 320 320 320 320 319 319 319 318 319
312 311 310 309 309 310 310 311 311 312 312 313 313 313 314 314 315 316 317 317 317 318 317 316 314 313 312 312 313 314 315 317 318 319 319 320 320 320 321 322 322 323 324 324 325 325 325 325 325 324 324 324 324 323 324 324 324 324 325 324 324 324 324 324 323 323 323 322 322 321 320 320 320 319 319 319 319 319 319 319 318 318 319 319 319
312 311 310 310 310 311 311 311 312 313 313 313 313 312 312 313 314 315 316 317 317 317 318 317 317 316 314 313 312 312 313 315 317 318 319 319 320 321 321 322 322 323 323 324 324 324 324 324 324 324 324 324 324 324 323 323 324 324 324 323 323 324 323 323 323 323 322 321 320 320 320 320 320 320 320 319 319 319 319 319 318 318 319 319 319
312 311 311 311 311 312 312 313 314 314 314 313 313 312 311 312 313 314 315 316 317 317 317 317 317 318 317 316 314 312 311 312 315 317 318 319 321 322 322 322 322 322 323 323 323 323 323 323 323 322 323 323 322 323 323 323 323 323 322 322 322 322 322 322 322 322 322 321 320 320 320 321 321 320 320 320 319 319 319 319 319 319 318 319 319
312 311 311 312 312 313 313 313 313 313 313 313 312 312 311 311 312 313 314 315 316 316 317 317 317 317 317 317 316 314 311 310 312 315 318 320 321 322 322 322 322 322 322 322 322 322 322 322 322 321 322 322 321 321 321 322 322 322 321 321 321 321 321 321 320 320 320 320 320 320 320 320 320 320 320 320 320 319 319 318 318 319 319 319 319
311 312 312 313 313 313 313 312 312 312 312 312 312 312 312 312 312 312 313 314 314 315 316 316 317 317 317 317 316 315 314 311 310 311 314 317 320 321 321 321 321 321 321 320 320 320 320 321 321 321 321 320 321 321 320 320 321 322 321 320 320 320 321 319 318 319 320 321 321 320 320 321 321 320 319 319 319 320 319 318 317 318 318 318 317
312 312 312 313 313 312 312 311 311 311 311 311 312 312 312 312 312 312 312 312 312 313 314 314 316 316 317 317 316 316 315 314 312 310 309 311 313 317 319 320 320 321 320 320 320 319 319 320 320 320 320 320 320 319 319 320 322 321 318 317 318 319 320 320 320 320 321 321 320 318 319 320 320 320 320 318 317 319 319 318 317 318 317 317 317
312 312 312 311 311 311 310 311 311 311 311 311 311 312 312 312 312 312 312 312 312 312 312 312 313 314 315 316 316 316 316 315 314 313 311 310 309 310 312 315 316 318 318 319 319 319 319 318 317 317 318 318 319 319 319 319 319 318 317 317 318 318 318 319 319 319 321 321 319 318 319 320 320 320 320 318 317 317 318 318 318 318 318 318 317
311 310 310 310 310 310 310 310 310 310 310 311 311 311 312 312 312 312 312 312 312 312 311 311 311 311 312 313 314 315 315 315 315 315 313 312 311 309 310 310 312 315 317 318 319 320 320 319 317 317 317 317 318 319 319 318 319 319 319 320 320 319 319 319 319 318 318 319 319 320 320 320 320 320 320 318 317 317 317 317 318 318 318 318 318
309 309 309 309 309 310 310 310 310 310 310 310 311 311 311 311 311 312 312 312 312 311 311 311 311 311 311 311 311 311 312 313 314 314 314 314 313 312 311 311 310 312 314 316 317 318 318 318 319 318 317 318 318 319 318 318 317 316 317 317 318 319 320 319 320 320 320 318 318 319 320 320 320 321 320 319 317 316 317 318 318 318 318 318 318
309 308 308 309 309 309 309 309 309 309 309 309 309 309 310 311 311 311 311 311 311 311 311 311 311 311 310 310 311 310 310 311 311 312 312 313 314 313 314 313 312 312 312 312 312 312 310 311 313 313 314 315 316 316 316 317 316 316 316 316 317 317 317 316 316 318 319 319 319 320 320 320 321 321 321 320 319 317 317 318 318 319 319 319 318
308 308 308 308 308 308 308 308 308 308 308 308 308 308 308 309 309 310 310 310 310 310 310 310 310 310 310 310 310 310 310 310 310 310 310 311 311 312 313 314 314 314 314 312 312 311 309 308 308 310 312 312 312 314 316 317 318 317 315 315 315 316 317 317 317 317 317 317 318 319 320 321 321 321 321 321 320 318 318 319 318 318 318 317 317
307 307 307 307 307 307 307 307 307 307 307 307 307 307 307 307 307 307 307 307 307 307 308 309 309 309 309 309 309 310 309 309 310 310 310 310 310 310 311 312 313 313 314 314 313 313 313 310 308 309 309 308 310 313 314 314 315 315 315 315 314 314 316 317 317 318 318 317 317 319 320 321 321 321 320 319 318 317 318 318 317 316 315 315 315
305 305 306 306 305 305 305 305 305 305 305 306 307 307 307 307 306 306 305 305 304 304 305 305 306 307 307 308 308 309 309 309 309 309 310 310 310 310 310 310 311 311 312 313 313 313 314 312 310 309 308 307 309 310 311 311 312 313 315 316 315 315 316 316 315 316 317 318 318 319 319 320 320 320 319 317 316 316 318 318 317 315 314 313 314
304 304 304 304 304 304 305 305 305 304 304 304 305 306 306 306 306 306 305 304 304 303 303 303 303 304 305 305 306 307 307 308 308 309 309 309 310 310 310 310 310 310 311 311 312 312 312 312 312 311 310 309 308 307 308 309 309 309 311 313 314 314 315 315 314 314 315 316 317 317 318 319 320 319 318 316 316 317 318 318 318 316 314 314 314
304 304 303 302 302 303 304 305 306 306 304 302 302 302 303 304 305 305 305 304 303 302 301 301 301 301 302 303 303 304 305 306 307 308 308 308 309 309 310 310 310 310 310 310 311 311 312 312 311 310 310 310 308 306 306 307 307 308 309 310 310 310 311 312 313 314 315 316 317 317 317 318 319 318 317 316 316 317 318 318 317 315 314 314 313
302 302 301 300 299 300 301 302 303 303 302 300 299 299 299 300 301 301 301 301 301 300 299 299 299 299 300 301 301 301 302 303 304 305 306 307 308 309 309 310 310 310 310 310 310 311 311 311 311 310 310 309 308 306 305 305 305 306 307 308 308 308 309 311 312 313 315 316 316 317 317 317 317 317 316 316 316 317 317 317 316 314 314 314 313
298 298 298 297 297 297 297 297 298 298 298 298 297 297 296 297 297 297 298 298 298 298 298 298 298 298 299 299 300 300 300 301 302 302 303 304 306 307 308 308 309 310 310 310 310 310 310 310 310 310 310 309 308 307 305 304 303 304 304 305 307 308 309 310 311 312 313 314 314 315 316 316 315 315 314 314 315 316 316 316 315 314 314 314 314
297 297 297 297 296 295 295 295 295 296 296 296 297 296 296 296 296 296 296 297 297 297 297 297 297 298 298 298 298 298 298 299 300 300 301 302 303 304 305 306 307 308 309 310 310 310 310 310 310 309 309 309 309 308 307 305 303 304 304 304 304 305 307 308 310 311 312 313 313 314 314 314 314 314 314 315 315 315 314 313 314 314 314 314 314
295 295 296 295 295 295 295 295 295 295 295 296 296 297 297 297 297 297 297 296 297 297 297 297 297 298 298 298 298 298 297 297 298 298 299 300 301 302 302 303 304 305 306 308 308 309 310 309 309 309 309 309 309 308 308 306 304 304 306 306 306 306 307 308 309 310 311 311 312 312 312 312 312 313 315 315 314 313 312 311 312 313 313 312 312
294 294 295 295 295 295 295 295 295 295 295 296 296 296 296 297 297 297 297 297 297 297 297 297 297 297 298 298 298 298 297 297 297 297 297 298 299 300 301 301 302 302 303 304 305 307 308 309 309 309 309 309 309 309 308 307 305 304 305 307 308 308 308 309 310 310 310 311 312 312 312 312 312 314 314 313 312 312 312 311 311 312 312 312 310
294 294 294 295 295 295 295 295 295 295 295 295 296 296 296 296 297 297 297 297 296 297 297 297 297 297 297 298 298 298 297 297 297 296 296 297 298 299 300 301 301 302 301 302 302 304 305 306 307 308 309 309 309 309 308 308 306 304 304 306 307 307 308 309 309 309 310 311 311 311 311 312 312 313 312 311 311 311 312 312 312 311 310 310 310
294 294 294 294 294 295 295 295 295 295 295 295 295 295 295 296 296 297 297 296 296 296 297 297 296 296 297 297 297 297 297 297 297 296 296 296 297 297 298 299 300 301 301 301 301 302 302 304 305 306 307 308 308 309 308 308 307 305 305 305 306 307 308 309 309 309 309 310 310 310 310 310 310 310 310 310 310 311 310 311 311 310 309 309 308
294 294 294 294 294 294 294 294 294 294 294 294 294 294 294 294 295 295 295 295 295 296 296 297 296 296 296 296 297 297 297 297 296 296 296 296 296 296 296 296 298 299 300 300 301 301 301 302 302 303 304 305 307 308 308 308 307 306 305 305 305 307 308 309 309 309 308 309 309 309 309 309 309 309 309 309 310 310 310 309 309 309 308 307 306
293 293 293 293 293 293 293 293 293 294 294 294 294 294 294 294 294 294 294 294 294 294 295 295 295 295 295 296 296 296 296 296 296 296 296 296 296 296 296 296 296 298 299 299 300 300 300 301 301 301 302 303 304 306 307 307 307 306 305 304 305 306 307 308 309 309 309 308 309 309 309 309 309 309 309 308 309 309 309 308 307 307 307 306 304
293 293 292 292 292 292 292 292 293 293 293 293 293 293 293 293 293 294 294 293 293 294 294 294 294 294 294 295 295 295 296 296 296 296 297 297 297 297 296 296 296 297 298 299 300 300 300 300 301 301 301 302 302 303 304 306 307 306 305 304 303 304 305 306 307 308 308 308 308 308 308 308 307 307 307 307 307 307 306 305 304 303 302 302 301
292 292 292 292 292 292 292 292 292 292 292 292 293 293 293 293 293 293 293 293 293 293 294 294 294 294 294 294 295 295 295 295 296 296 297 297 297 297 296 296 297 296 297 298 299 300 300 300 300 301 302 302 302 302 303 304 305 306 306 304 303 302 302 303 304 305 306 306 306 307 308 308 307 306 306 305 305 305 304 303 301 300 299 298 297
291 291 291 291 291 291 291 291 291 291 291 292 292 292 292 293 293 293 293 293 293 293 293 293 294 294 294 294 294 295 295 295 296 296 296 297 297 297 297 296 297 297 297 298 299 299 300 301 301 301 302 302 301 302 302 303 304 305 305 304 303 302 301 300 301 302 303 303 304 305 306 307 306 307 306 305 305 304 303 302 300 298 296 296 295
290 290 290 290 290 290 290 290 290 290 291 291 291 291 291 292 293 293 293 292 292 293 293 293 293 293 293 294 294 294 295 295 295 296 296 296 296 296 296 296 296 296 297 298 298 299 300 301 301 301 302 302 302 302 302 303 303 303 303 303 302 302 300 300 300 300 300 302 302 303 304 305 305 305 305 304 303 302 301 300 299 297 295 294 294
289 289 290 290 290 289 289 289 289 289 289 289 290 290 290 290 291 292 293 293 292 292 292 292 292 292 293 293 294 294 294 295 295 295 296 296 296 295 296 296 295 295 295 296 297 298 299 300 301 301 301 302 302 302 302 302 301 301 301 300 300 300 299 299 299 299 299 300 301 301 302 302 302 302 302 302 301 299 298 297 296 294 293 293 292
289 289 288 288 289 289 288 288 288 288 288 288 289 289 289 289 290 291 292 292 292 292 292 291 291 292 292 293 293 293 294 294 294 294 295 295 295 294 294 295 295 294 294 294 295 296 297 298 299 300 300 300 300 300 299 299 298 298 298 298 298 298 298 298 298 299 299 300 300 300 300 301 301 301 300 300 299 298 297 296 294 293 292 292 291
288 288 288 288 288 288 288 287 287 287 288 288 288 288 288 289 289 289 290 290 291 291 291 291 290 290 290 291 291 292 292 293 293 293 293 293 293 293 293 293 293 293 292 292 293 294 294 295 296 296 297 297 297 296 296 295 295 295 296 296 297 297 297 298 298 299 299 299 299 299 300 300 300 300 299 298 297 297 296 296 294 293 292 291 290
287 287 287 286 286 286 286 286 286 287 287 287 287 287 287 287 287 287 287 287 288 289 289 288 287 287 286 287 288 289 290 291 291 292 292 292 291 291 291 291 291 290 291 291 291 291 292 292 293 293 294 294 294 294 294 294 294 294 295 296 296 297 297 298 299 299 299 299 299 299 299 299 299 298 298 297 296 296 296 295 294 293 291 290 288
285 285 285 285 285 285 285 285 286 286 286 286 286 286 286 286 285 285 284 284 284 285 285 285 284 285 285 284 284 285 286 287 288 289 289 290 289 289 290 290 289 289 289 289 289 290 290 291 291 292 292 293 293 293 294 294 294 294 295 295 296 296 297 298 298 299 298 298 298 298 298 298 298 297 297 297 296 295 294 294 293 291 290 288 287
283 283 283 283 284 284 284 284 285 285 284 284 284 284 284 283 283 282 282 282 282 282 283 283 282 283 283 283 283 284 284 285 286 286 287 287 288 288 289 289 289 289 289 289 289 289 289 289 290 290 291 292 292 293 293 294 294 294 294 295 295 295 296 296 297 297 297 297 297 297 297 297 297 296 296 296 295 294 294 293 292 290 289 287 286
282 282 282 283 283 283 283 283 283 283 283 283 283 283 282 281 281 281 281 281 281 281 281 281 281 281 281 282 283 283 283 284 284 284 285 286 286 286 287 287 288 289 289 289 288 288 288 288 288 289 289 290 290 291 291 292 293 293 293 293 294 294 294 295 295 295 296 296 296 296 296 296 296 296 295 295 294 294 293 292 291 290 289 287 286
281 281 282 282 282 282 282 282 282 281 281 281 281 281 280 280 281 281 280 280 280 279 279 279 280 280 281 281 281 281 281 281 282 282 283 284 284 285 285 285 286 286 287 287 287 288 288 288 288 288 288 288 289 289 290 290 291 292 292 292 292 293 293 293 294 294 294 295 295 295 295 295 295 294 294 293 293 292 292 291 290 289 288 287 285
279 280 280 280 280 280 280 280 280 279 279 279 279 279 279 279 279 279 278 277 277 277 278 278 279 279 279 279 279 279 280 280 281 281 281 282 283 283 283 284 284 284 285 285 286 287 288 288 288 288 288 288 288 289 289 289 290 290 291 291 291 292 292 292 293 293 293 294 294 294 294 294 294 294 293 293 292 291 290 290 289 288 286 285 284
278 278 278 278 278 278 278 278 278 278 278 278 278 278 278 277 276 275 275 276 276 277 277 277 277 278 278 278 279 279 279 280 280 280 280 280 281 281 282 282 283 283 283 284 284 285 286 287 287 287 287 288 288 288 288 289 289 289 290 290 290 291 291 291 292 292 292 293 293 293 293 293 293 292 292 291 291 290 289 288 287 286 285 284 284
277 277 277 277 277 277 277 277 277 276 277 277 277 276 276 275 275 274 275 276 276 276 276 276 277 277 278 279 279 279 279 279 279 279 279 279 280 280 281 281 281 282 282 282 283 284 284 285 286 286 286 287 287 287 287 288 288 288 289 289 289 290 290 290 291 291 291 291 292 292 292 292 291 291 290 290 289 288 288 287 286 285 284 284 284
277 277 277 277 276 276 276 276 275 275 276 275 275 275 275 274 275 275 275 276 276 276 276 276 277 277 278 278 278 278 278 278 278 278 278 278 279 279 279 280 280 280 281 281 282 283 283 284 284 285 285 286 286 286 287 287 288 288 288 288 288 289 289 289 290 290 290 290 291 291 291 290 290 290 289 288 288 287 286 285 285 284 284 283 283
276 276 276 276 275 275 275 275 275 275 275 274 274 274 274 275 275 275 276 276 276 277 277 277 277 277 277 278 278 278 278 278 278 278 278 278 278 278 279 279 279 280 280 281 281 281 282 282 283 283 284 284 285 285 285 286 286 287 287 287 287 287 288 288 288 288 289 289 289 289 289 289 289 288 288 287 287 286 286 285 284 284 283 283 283
277 276 276 276 276 275 275 275 275 275 275 275 275 275 276 276 276 276 276 276 277 277 277 277 277 277 277 277 277 277 277 277 277 277 277 277 278 278 278 278 279 279 279 279 280 280 281 281 281 282 282 283 283 284 284 284 285 285 286 286 286 286 286 287 287 287 287 287 288 288 288 288 288 287 287 286 286 285 285 284 284 284 283 283 283
277 277 277 277 276 276 276 276 276 276 276 276 276 276 276 276 276 276 276 276 276 276 276 277 277 277 277 277 277 277 277 277 277 277 277 277 278 278 278 278 278 278 278 279 279 279 280 280 280 280 281 281 282 282 283 283 283 284 284 284 285 285 285 285 285 285 286 286 286 286 286 286 286 286 286 285 285 284 284 283 283 283 283 283 283
277 277 277 277 277 277 277 277 277 277 276 276 276 276 276 276 276 276 276 276 276 276 276 276 276 276 276 276 276 276 276 276 277 277 277 278 278 278 278 278 278 278 278 278 278 279 279 279 279 279 280 280 280 281 281 282 282 282 283 283 283 284 284 284 284 284 284 284 284 285 285 285 285 285 285 284 284 283 283 283 282 282 282 282 283
276 276 276 276 276 276 276 276 276 276 276 275 275 275 275 275 275 275 275 275 275 275 275 276 276 276 276 276 276 276 276 276 276 277 277 277 277 277 278 278 278 278 278 278 278 279 279 278 278 279 279 279 279 280 280 280 281 281 282 282 282 282 282 282 282 282 283 283 283 283 283 283 284 284 283 283 282 282 282 282 281 281 281 282 282
276 276 276 276 276 276 276 276 276 275 275 275 275 275 275 275 275 275 275 275 275 275 275 275 276 276 276 276 276 276 276 277 277 277 277 277 277 277 277 277 277 277 277 278 278 278 278 278 279 279 279 279 279 279 279 279 280 280 280 281 281 281 281 281 281 281 281 281 282 282 282 282 282 282 282 281 281 281 281 281 281 281 282 282 282
275 275 276 276 276 276 276 276 276 275 275 275 275 275 275 275 275 275 275 275 275 275 275 275 276 276 276 276 276 276 276 276 276 277 277 277 277 277 277 277 277 277 277 277 277 277 277 277 278 278 278 279 279 279 279 279 280 280 280 280 280 280 280 280 280 280 280 280 280 281 281 281 281 281 281 281 281 281 281 281 281 281 281 281 282
Wind_Speed
18 19 21 22 24 24 25 24 23 22 22 21 20 20 20 21 22 24 25 25 26 27 27 27 27 29 30 31 32 33 34 34 34 35 37 40 41 42 43 44 45 46 46 46 47 47 49 50 51 50 49 51 52 51 52 51 51 52 51 51 51 50 49 49 53 58 58 53 52 51 49 48 47 45 43 41 37 35 35 34 33 33 34 35 34
19 20 21 23 26 27 28 28 26 24 23 21 20 20 20 20 21 23 23 23 24 26 27 27 27 28 30 31 32 33 34 34 34 35 37 38 40 41 42 44 45 46 46 47 47 47 48 49 50 50 49 50 51 51 52 51 51 52 51 51 52 51 50 50 51 55 57 54 51 51 50 48 48 46 44 42 40 38 37 36 35 36 36 35 35
19 20 23 25 27 28 29 28 27 25 24 22 21 20 20 21 21 23 23 23 23 24 25 26 27 28 29 31 32 33 34 34 35 36 37 38 39 40 41 43 44 46 46 47 47 47 48 49 49 49 48 50 51 51 51 51 51 52 53 52 53 53 52 51 51 53 55 55 52 51 50 48 48 46 44 43 40 38 38 38 38 38 38 37 38
20 22 25 26 27 27 27 27 26 25 24 24 23 23 22 22 22 23 24 25 24 24 25 26 27 29 30 31 32 33 34 34 35 36 37 37 39 39 40 42 43 45 46 47 47 47 47 48 48 47 47 48 50 50 50 51 51 51 52 52 52 53 52 51 51 52 54 54 52 49 47 45 44 43 41 41 39 38 38 39 39 40 41 41 40
21 24 26 27 26 25 26 26 26 25 24 24 24 24 25 25 24 24 25 26 27 26 26 27 28 29 31 32 33 33 33 34 34 36 36 37 38 39 40 41 42 44 45 46 46 47 47 48 48 47 46 48 48 48 48 49 50 50 51 52 52 52 51 50 50 50 51 52 51 49 48 47 46 45 42 39 39 38 38 38 40 41 40 39 38
24 25 26 26 25 24 25 26 26 25 25 26 26 26 27 27 27 27 26 27 28 28 28 29 29 31 32 32 33 34 34 34 34 35 36 36 37 39 40 41 42 43 44 45 46 46 47 47 48 47 47 48 48 48 47 47 48 48 49 49 49 48 49 50 51 50 50 51 52 52 52 52 51 50 47 43 41 41 42 43 40 37 36 37 37
24 25 25 24 24 24 25 25 26 26 27 28 28 29 28 28 28 28 29 29 29 29 30 30 31 32 33 33 33 33 34 35 35 34 35 36 37 38 40 40 41 43 44 45 46 46 47 47 47 47 47 47 48 48 48 47 48 48 47 46 46 46 48 49 49 48 49 51 53 53 51 52 51 49 48 45 41 41 44 46 43 38 37 39 39
25 26 25 24 24 24 24 26 27 29 30 31 31 31 29 28 27 28 29 30 31 32 32 32 32 33 34 34 34 33 34 35 36 35 35 35 36 38 39 40 41 42 43 44 45 46 47 47 47 47 47 47 47 47 46 46 47 47 45 45 46 46 46 46 44 44 45 47 50 49 48 49 49 46 45 45 44 42 41 42 44 42 40 41 41
25 25 25 24 25 26 27 29 31 32 32 32 32 31 29 27 26 27 28 30 32 33 34 34 35 34 34 34 34 34 34 34 34 35 36 36 36 37 38 39 40 42 43 44 44 45 46 46 47 48 47 47 48 47 46 46 46 46 46 44 45 45 45 44 44 43 46 48 50 49 48 50 49 45 44 45 47 47 42 41 44 43 41 42 42
23 24 25 25 27 29 31 32 32 32 31 31 30 30 28 27 27 27 27 29 30 32 34 35 36 36 36 36 36 35 35 34 32 32 33 34 36 37 38 40 40 41 43 44 44 44 45 45 47 47 47 47 47 46 46 45 46 47 46 44 44 47 48 49 48 46 46 47 47 47 48 49 48 47 47 45 44 46 45 44 45 44 43 44 43
23 25 27 28 29 30 30 29 29 28 27 27 28 29 29 30 30 29 28 29 29 30 31 33 34 35 36 37 38 37 37 36 34 32 31 32 34 36 38 39 40 41 42 43 44 45 46 47 47 47 47 47 46 46 45 45 45 46 44 42 42 44 45 47 47 46 47 48 47 48 50 51 50 49 46 41 40 43 45 46 45 45 45 46 45
24 26 27 28 28 28 28 27 26 26 25 26 27 28 30 31 31 31 31 30 30 30 30 31 32 32 34 35 37 38 38 37 35 34 33 32 33 35 37 38 39 40 41 42 44 46 47 47 47 46 46 45 45 44 43 43 45 45 44 45 46 45 44 44 43 42 44 48 50 52 52 52 52 51 44 37 36 39 42 44 44 45 47 47 46
24 24 25 26 26 26 26 26 26 26 26 26 27 27 29 30 32 33 33 32 32 31 31 31 31 32 32 33 34 35 36 36 36 35 34 33 33 34 35 37 38 39 41 42 44 47 48 47 47 48 47 45 43 42 42 43 44 43 42 44 45 46 47 49 49 47 45 45 49 52 53 51 52 51 44 36 34 35 38 41 42 43 44 44 42
24 23 24 24 25 25 25 26 26 26 26 26 26 27 28 29 30 31 33 33 33 32 32 32 31 32 32 33 34 34 33 33 33 34 34 34 34 34 35 36 37 38 40 41 43 45 46 46 47 48 47 45 44 43 42 41 39 39 40 42 43 42 42 43 44 45 46 48 52 55 56 55 54 51 45 40 37 36 39 41 42 43 43 41 37
24 24 24 24 24 25 25 26 26 26 26 26 25 25 26 27 28 29 30 30 31 32 32 32 31 31 32 32 33 34 32 31 30 31 32 33 34 35 36 37 38 38 38 38 38 39 40 41 44 45 45 45 44 42 40 37 36 38 41 43 44 44 45 44 41 39 41 46 50 52 54 55 54 53 50 47 41 38 40 43 44 43 41 39 38
23 24 24 24 25 25 26 27 27 27 27 26 25 24 24 24 25 25 26 27 27 29 30 31 31 32 32 32 33 33 32 31 30 29 29 30 32 34 36 37 38 39 39 38 36 36 36 37 40 42 44 45 43 40 39 39 39 41 42 43 44 45 47 47 44 41 41 42 44 46 47 48 50 52 52 47 41 38 41 46 46 42 39 39 38
21 22 23 24 25 25 26 27 28 29 29 28 27 25 23 22 22 23 24 24 25 26 27 29 30 31 31 31 32 33 32 31 30 30 29 29 30 31 33 35 37 38 39 38 36 36 35 35 36 38 39 40 40 39 39 39 39 42 43 44 44 46 47 45 43 41 41 41 44 45 46 47 47 45 43 40 38 39 41 45 47 44 40 40 39
22 22 23 23 24 24 25 27 28 30 30 30 30 28 25 24 23 23 24 24 24 24 25 25 26 27 29 29 30 30 30 29 29 28 28 27 28 29 30 32 34 36 38 37 36 35 34 33 33 34 36 37 37 38 38 37 38 41 43 44 46 48 49 45 41 39 38 40 42 42 42 44 42 38 37 39 41 43 45 46 48 46 42 41 41
24 24 24 22 22 22 24 26 29 30 32 31 31 31 29 28 26 25 25 26 26 25 24 24 24 24 25 26 26 27 27 26 26 26 25 25 26 27 28 29 30 32 33 35 36 35 34 33 32 32 34 35 36 36 36 36 37 40 41 44 47 49 48 44 40 39 38 39 41 40 39 39 37 36 38 40 42 43 44 45 46 45 42 41 40
23 24 24 23 23 23 24 26 27 29 31 31 31 31 30 30 29 28 28 27 27 27 26 25 25 23 23 24 24 25 25 24 23 23 23 23 24 25 27 28 29 30 30 31 33 33 33 33 33 32 32 33 33 33 32 32 34 38 40 42 46 47 45 42 41 40 40 39 39 39 39 38 37 37 38 39 40 42 43 43 43 42 39 37 38
24 24 24 25 24 24 23 24 25 27 28 29 30 30 29 30 30 30 29 29 29 28 28 27 27 26 25 25 25 25 26 25 24 23 22 22 23 24 25 26 28 29 30 31 31 32 32 32 32 32 32 33 32 32 31 29 28 31 36 40 43 44 42 42 41 39 39 40 39 38 37 37 37 38 39 39 39 39 38 40 41 40 37 36 38
26 26 26 27 26 25 24 23 23 25 27 28 29 29 29 30 30 31 30 30 30 30 30 30 30 30 28 28 27 27 27 27 27 26 25 24 24 23 24 25 26 28 30 31 32 32 31 31 31 31 32 33 33 33 32 30 26 26 30 32 34 36 38 39 39 38 38 39 39 38 38 38 38 39 38 37 37 35 33 35 38 39 39 38 39
27 27 27 27 27 27 27 25 24 25 26 27 28 29 29 30 31 32 32 32 32 31 31 31 32 33 32 31 30 30 29 29 28 28 28 27 26 25 25 25 25 26 28 30 32 33 33 32 32 32 32 32 33 33 34 32 28 27 26 26 26 27 30 33 37 38 39 39 38 39 40 40 40 38 35 35 36 35 33 34 36 39 41 41 41
28 27 27 28 28 28 28 28 27 27 27 27 28 29 29 29 30 31 33 33 34 34 33 33 34 35 35 35 34 33 33 31 29 28 28 28 28 27 27 27 26 26 28 29 30 32 33 34 34 34 34 33 33 33 33 33 30 28 26 24 24 25 27 30 32 34 35 36 37 39 39 39 40 38 35 35 36 36 35 35 36 40 43 43 42
28 27 28 28 28 28 29 29 29 29 29 29 30 31 31 31 31 31 32 33 33 34 34 35 35 36 37 37 37 37 36 35 33 30 30 30 29 29 29 28 27 27 28 29 30 30 32 33 34 35 35 35 35 34 33 31 30 28 26 24 24 25 27 29 30 31 32 34 37 38 38 38 39 38 36 37 38 38 38 39 40 41 43 43 42
28 28 28 29 29 29 30 30 30 31 31 30 31 31 32 33 34 34 34 35 35 35 36 37 37 38 38 38 39 39 38 38 36 34 33 33 33 33 33 32 30 30 30 31 31 31 31 32 32 33 34 35 36 36 35 32 29 27 26 25 25 26 27 29 30 32 34 35 36 37 37 37 37 37 37 38 38 37 39 41 42 42 43 43 43
29 30 30 31 31 31 31 32 32 33 33 33 33 32 31 32 33 34 35 36 36 36 37 39 40 40 40 40 41 41 40 40 38 36 35 36 35 36 36 36 35 34 34 35 35 35 35 34 33 33 33 33 34 34 35 34 31 27 25 25 25 27 28 29 30 31 33 34 35 35 36 37 37 38 38 38 36 36 37 39 41 42 43 43 43
30 31 32 33 33 34 34 34 35 35 35 36 36 36 35 35 34 34 34 34 35 36 36 38 39 40 41 41 42 42 42 40 38 37 36 37 37 37 37 37 37 37 37 37 38 39 39 38 38 37 35 34 33 32 33 33 33 30 26 24 25 27 28 29 30 31 32 33 34 35 36 38 39 38 38 37 37 37 37 38 40 41 42 43 43
31 32 33 35 35 35 36 36 36 37 37 37 37 37 37 37 38 38 37 34 34 35 36 37 37 38 40 41 41 43 44 43 39 37 37 36 36 36 36 36 36 36 36 37 38 40 41 41 40 39 39 38 37 35 33 32 32 31 29 25 23 24 26 27 29 30 32 33 34 36 37 38 39 38 38 37 37 38 38 39 40 40 41 42 43
32 33 35 36 37 38 38 38 38 38 39 40 40 39 39 38 38 39 40 38 36 35 36 36 36 36 38 39 38 39 43 44 41 40 39 37 36 36 36 35 35 35 35 36 38 40 42 42 42 41 40 40 40 38 36 34 32 32 31 29 25 23 23 25 26 28 30 32 34 35 37 38 38 37 37 37 38 39 39 39 40 40 40 40 40
33 34 36 37 38 39 40 40 40 40 40 41 42 43 43 42 40 39 39 39 39 38 37 37 37 36 37 39 39 39 40 41 42 41 40 38 37 36 37 36 35 34 34 34 37 40 41 42 43 42 40 40 40 40 38 37 35 33 32 31 29 26 24 24 24 25 27 30 31 34 36 38 37 37 37 37 39 39 39 39 40 39 39 39 39
35 36 37 38 39 41 42 42 42 43 43 43 43 44 45 47 47 45 42 40 40 40 39 39 39 37 37 37 39 40 40 41 42 42 41 39 38 37 37 37 36 35 34 33 36 39 39 40 42 43 41 41 41 40 39 38 37 35 33 32 31 29 27 24 22 22 25 27 30 32 35 37 37 37 37 38 39 39 39 39 40 39 38 38 38
36 38 39 40 40 41 42 43 43 43 43 43 43 44 44 46 48 50 50 47 45 43 42 41 40 39 38 37 38 40 41 41 41 42 41 40 39 38 37 37 36 35 34 34 36 38 38 39 41 42 41 41 41 40 40 39 38 36 34 32 31 30 28 25 23 22 24 26 28 31 34 36 37 37 37 37 38 38 38 39 39 39 38 38 38
38 39 39 40 41 41 42 42 43 43 43 43 43 42 42 43 44 47 50 51 51 49 46 43 41 40 40 39 38 39 40 41 41 41 40 40 39 38 38 38 36 34 33 34 36 37 38 39 40 41 41 41 40 40 39 39 38 36 34 32 31 29 27 25 24 24 24 26 28 31 33 35 36 37 38 38 38 38 38 38 39 39 39 40 40
39 40 40 40 41 42 42 42 42 43 43 43 42 42 42 41 41 43 44 46 49 50 49 46 43 42 41 40 39 39 39 40 40 40 39 39 38 36 37 38 38 36 35 34 35 36 36 38 39 40 39 39 39 39 38 37 36 35 34 32 30 29 27 25 25 25 25 26 28 30 32 34 36 37 37 37 38 38 38 38 39 39 40 40 40
41 42 42 41 41 42 42 43 42 42 43 42 42 41 41 40 40 40 41 41 43 46 47 46 44 42 39 38 39 40 39 38 39 39 38 38 36 34 34 36 37 37 36 36 35 35 36 36 37 38 38 38 38 38 37 37 36 34 33 32 30 29 27 26 26 26 25 26 28 30 31 34 35 36 37 37 37 38 38 38 38 39 40 40 41
42 43 43 43 42 42 42 42 42 42 42 42 41 40 40 39 38 37 38 38 39 41 43 44 43 43 42 40 37 36 36 37 37 38 37 36 35 33 33 34 35 36 36 35 35 35 36 36 36 36 36 36 36 37 37 36 36 34 33 32 31 31 29 28 27 27 27 28 28 30 31 33 34 35 36 37 38 38 38 39 38 38 39 40 40
41 42 42 42 42 42 41 41 41 41 40 40 40 38 37 36 35 35 36 37 37 38 39 40 40 40 41 39 35 35 37 39 39 38 36 34 32 32 32 32 33 33 34 35 34 34 36 36 36 35 35 35 35 35 35 35 35 34 33 32 32 32 31 30 29 29 30 30 30 30 32 33 34 35 36 37 38 38 39 39 39 38 39 40 40
39 40 39 39 39 39 39 39 39 39 38 38 37 35 34 34 34 34 34 35 35 35 36 36 36 35 37 38 38 38 38 38 36 35 34 32 29 28 29 30 32 33 34 35 34 33 34 33 33 32 33 33 34 34 34 34 34 34 33 32 33 33 32 32 32 31 31 31 30 31 32 33 34 35 36 37 37 38 38 39 39 39 39 40 41
37 37 37 37 37 37 37 37 37 36 35 35 34 32 32 32 31 32 31 31 31 32 32 33 35 35 35 35 34 32 33 34 34 34 34 34 32 30 29 29 30 31 32 33 33 33 34 35 34 34 34 34 34 34 34 34 34 34 33 32 33 33 33 33 33 32 32 31 31 31 32 33 33 34 36 36 37 38 38 38 38 39 40 40 40
34 35 35 35 35 35 34 34 34 33 31 31 30 29 29 28 27 27 27 27 29 31 32 33 33 33 31 30 29 29 31 34 35 35 34 34 32 30 29 28 28 29 31 33 34 36 38 39 40 39 37 36 35 34 33 33 33 33 33 33 33 33 33 33 33 33 32 32 32 31 32 33 33 34 35 36 36 36 37 37 37 38 39 39 40
33 33 33 32 31 31 30 29 29 28 27 27 26 25 24 23 23 24 26 27 29 30 30 30 30 30 29 29 30 30 31 32 32 31 31 31 30 29 29 30 30 31 33 34 34 35 36 38 38 37 36 34 32 31 30 30 30 31 31 31 31 31 31 31 32 32 32 32 32 32 32 33 33 34 35 35 36 36 36 37 37 38 39 40 41
28 29 28 27 26 25 25 25 24 24 23 23 22 21 21 21 23 24 26 26 26 26 27 27 28 29 29 29 28 28 27 27 27 27 28 28 29 29 30 30 30 30 30 30 30 31 31 33 33 33 31 30 28 27 26 26 26 27 28 29 29 29 30 30 30 30 30 30 31 31 32 33 33 34 34 35 35 36 36 37 38 39 40 41 41
23 23 23 22 22 21 20 20 20 19 19 19 19 19 20 21 22 23 22 22 22 22 23 24 25 25 25 24 23 23 23 23 23 24 25 25 26 27 27 27 27 26 26 26 25 25 26 26 27 27 26 24 23 23 22 22 22 23 24 26 28 28 28 28 29 29 29 29 30 31 31 32 33 33 34 35 35 35 36 37 38 39 40 42 42
19 18 18 17 17 17 16 16 16 17 17 18 18 19 19 19 18 18 18 18 18 18 18 18 18 19 19 19 18 18 18 18 18 19 20 21 22 23 23 24 23 23 23 22 21 21 21 21 22 22 21 20 20 20 20 20 20 20 21 23 25 26 26 26 27 27 27 28 28 29 30 31 32 33 34 35 35 36 37 38 39 40 42 43 43
15 14 14 14 14 14 14 14 14 15 15 15 15 14 14 13 14 13 13 13 13 13 14 14 15 15 16 16 15 15 14 14 15 15 16 17 18 19 19 20 20 20 21 20 20 20 20 20 20 20 20 20 19 19 20 19 19 19 20 20 21 23 23 23 24 24 25 25 26 27 28 29 31 32 33 34 35 36 37 38 39 41 42 43 44
12 11 10 10 10 10 10 10 11 11 10 10 10 10 11 11 10 10 10 11 12 13 14 15 16 16 17 17 17 16 16 16 16 16 17 17 17 18 18 18 19 19 19 20 20 19 19 19 20 20 20 20 20 19 19 19 18 17 17 17 18 18 19 19 20 20 21 22 23 24 26 28 29 31 32 33 34 35 37 38 39 41 42 43 43
9 9 8 7 7 7 8 8 8 9 9 9 9 10 10 11 11 11 11 11 12 13 14 15 16 16 17 18 19 19 19 19 19 20 20 20 20 20 21 21 21 21 21 21 21 21 20 20 20 19 19 19 19 19 18 18 17 16 16 15 15 15 15 15 16 16 17 18 19 21 24 26 28 29 31 32 33 34 36 37 39 40 41 42 41
10 9 8 8 7 7 7 8 8 9 9 9 10 10 10 11 11 12 12 12 13 13 14 15 16 16 17 18 18 19 20 20 20 21 21 21 21 22 22 22 22 22 23 23 23 23 23 22 22 21 21 20 20 19 18 18 17 17 16 15 14 14 13 13 13 14 14 15 17 19 21 24 26 27 29 31 32 34 35 37 38 39 40 41 41
11 10 10 9 9 9 9 9 9 10 10 10 10 10 10 11 11 12 13 13 14 14 15 15 16 17 17 18 18 18 18 19 20 20 20 21 21 21 21 21 21 21 21 22 22 22 22 22 22 22 22 22 22 21 20 19 18 17 16 16 15 14 13 12 12 12 12 12 14 16 19 21 23 25 27 29 31 32 33 35 36 38 39 40 40
11 11 11 10 10 10 10 10 10 10 10 11 11 11 11 12 12 13 14 14 15 15 15 16 16 17 17 17 17 17 18 18 18 18 18 19 19 20 20 20 21 21 21 21 21 21 20 20 20 20 20 20 20 20 20 20 19 18 17 16 15 13 12 11 10 10 10 10 11 13 15 18 20 23 25 27 29 30 31 33 35 36 36 35 35
Wind_Direction
322 320 321 321 319 319 318 318 316 312 310 311 309 307 305 305 308 309 305 299 292 284 280 278 278 278 278 277 277 276 276 276 276 275 275 275 275 275 276 274 273 273 273 272 272 271 270 270 270 270 270 269 269 269 269 269 269 268 267 266 264 262 260 258 260 266 271 273 275 277 279 280 280 280 281 280 280 279 276 272 272 273 271 268 268
317 315 314 315 316 316 317 319 320 315 311 307 304 302 300 299 300 299 300 301 295 288 283 279 277 276 276 276 275 275 274 274 274 273 272 272 272 273 273 273 272 273 272 272 272 271 271 270 270 271 270 270 269 269 269 269 269 268 267 266 266 266 264 262 261 265 270 272 273 275 277 277 277 278 279 279 280 279 275 272 275 276 273 269 268
311 310 310 311 312 313 315 318 318 316 312 307 301 299 296 294 294 292 293 295 292 288 284 280 277 275 274 274 274 273 273 273 272 272 271 271 271 271 271 271 272 272 272 272 273 272 272 272 272 272 271 270 271 270 270 270 269 268 268 268 267 268 267 265 264 265 269 272 272 272 273 273 274 276 278 278 277 275 272 272 274 274 272 270 269
305 307 309 310 310 311 313 314 315 314 312 309 306 302 299 296 293 290 289 289 290 289 285 281 278 275 273 273 272 272 272 272 272 272 271 271 271 270 271 271 271 272 273 273 274 273 273 273 273 274 273 272 272 272 271 270 270 269 269 269 267 267 266 265 265 266 268 269 268 269 270 272 273 276 277 275 272 272 271 270 271 271 271 269 267
303 307 308 309 309 309 310 311 312 312 312 312 311 309 305 301 297 293 290 287 286 287 287 286 283 279 276 274 273 272 271 271 272 272 272 272 272 272 272 272 272 273 273 274 274 274 274 274 274 274 274 273 272 272 271 271 270 270 270 269 268 267 266 266 268 269 268 267 269 272 274 274 274 274 273 272 271 272 270 268 269 270 267 264 261
305 307 308 309 308 308 309 311 311 312 312 314 314 313 310 306 302 298 293 289 287 285 285 285 285 284 282 279 276 274 272 271 271 272 272 272 273 273 273 273 273 273 274 274 275 275 274 274 274 274 273 273 273 273 272 272 271 270 269 268 267 267 267 269 270 269 268 269 271 272 272 271 270 270 269 269 269 270 269 267 267 268 266 263 261
307 308 308 307 307 308 309 310 311 312 313 315 315 315 313 309 305 301 297 293 290 288 285 284 283 283 283 283 282 279 275 272 271 271 272 273 274 275 274 275 274 274 275 275 275 275 274 274 274 273 272 272 272 272 272 272 271 270 270 268 267 266 268 269 269 267 267 268 269 268 268 269 267 266 266 264 264 268 267 263 261 263 265 266 265
307 308 308 308 308 309 311 312 312 313 314 315 315 316 314 311 307 304 300 296 292 289 287 285 283 282 282 283 283 283 280 276 274 273 273 274 274 275 275 275 275 275 276 276 275 275 275 274 273 273 272 272 272 272 272 271 270 270 270 270 268 266 267 269 269 269 269 269 268 267 268 268 266 265 266 264 262 266 268 264 261 263 265 266 266
307 307 308 309 310 313 314 314 314 314 314 314 314 314 313 310 308 305 302 298 294 291 289 287 286 285 284 283 282 282 282 280 278 276 276 276 275 275 275 275 276 276 276 276 276 275 275 274 274 273 273 273 273 273 273 272 271 270 270 270 269 266 267 270 269 266 265 265 265 265 265 265 265 266 268 268 267 268 272 272 268 266 266 266 263
309 309 310 311 312 313 313 313 314 315 316 315 313 312 310 308 307 305 302 300 297 295 292 290 289 288 287 286 285 284 284 283 282 279 276 276 275 275 275 275 275 275 276 276 276 276 276 275 274 274 274 274 274 273 273 273 271 270 270 270 269 267 267 267 266 264 264 264 266 266 264 265 265 265 266 270 271 270 271 271 269 268 267 266 263
311 311 311 312 313 314 315 316 317 318 317 315 312 310 308 307 306 304 303 302 300 298 297 295 293 291 289 288 287 287 287 287 287 285 281 276 273 272 272 273 274 274 275 276 277 277 277 276 275 274 273 274 274 273 273 272 271 272 273 272 269 268 268 267 266 266 265 266 269 268 264 263 265 264 265 270 271 268 269 270 268 268 268 266 264
310 311 312 314 316 318 319 319 320 319 316 313 310 309 308 306 306 305 303 303 301 300 300 298 297 296 293 291 289 288 288 288 288 287 286 282 278 275 273 272 272 272 273 274 276 277 277 278 279 278 277 276 275 274 274 273 272 273 274 273 269 267 266 265 264 265 265 267 269 268 265 265 266 264 263 269 272 268 268 271 270 268 267 267 266
311 313 315 317 318 319 319 319 319 318 316 314 311 309 307 305 305 305 304 305 304 303 302 301 301 301 300 298 295 293 291 289 287 286 284 283 281 279 277 275 273 271 270 269 270 271 271 272 273 274 275 275 274 272 272 273 272 271 271 272 269 265 265 265 264 263 265 267 269 268 266 266 268 267 267 271 274 270 268 271 271 268 266 267 270
314 315 315 316 316 317 317 317 318 318 318 318 316 314 311 308 306 304 304 306 307 307 306 306 305 305 305 304 303 301 300 297 292 288 285 282 280 279 278 278 277 276 275 272 271 272 272 271 270 271 272 271 270 271 273 276 278 276 274 274 271 267 268 269 267 264 264 264 266 268 268 268 269 271 270 268 267 267 268 270 270 270 269 268 267
312 312 312 312 312 313 314 315 317 318 319 320 320 320 318 314 311 309 307 307 308 309 309 310 310 310 310 310 307 307 309 308 303 296 290 285 282 279 278 277 278 278 278 278 277 278 278 276 273 273 274 273 272 272 274 275 275 274 274 274 272 270 270 269 266 265 265 265 265 267 269 269 270 271 269 265 265 268 271 271 270 270 270 266 261
304 305 306 307 308 311 313 314 316 317 317 318 319 319 318 316 315 313 312 312 312 312 311 312 313 313 314 315 313 312 314 316 313 307 300 293 287 282 279 277 276 276 277 277 278 279 279 275 271 270 271 273 273 272 271 269 269 271 273 274 274 273 272 270 269 267 265 265 266 267 269 271 272 271 268 266 267 270 271 271 269 264 261 258 256
299 301 303 306 309 312 314 315 316 316 315 315 314 315 314 313 313 312 312 313 314 314 314 313 315 316 316 317 316 316 318 320 318 315 311 305 297 291 285 281 278 276 275 274 274 275 275 274 271 270 271 272 271 268 269 269 268 268 270 273 275 274 272 273 273 269 266 269 271 271 273 273 270 268 266 266 268 267 265 266 267 263 258 254 251
301 303 304 305 308 311 313 315 316 315 314 312 311 311 310 308 308 308 308 310 310 312 313 312 314 317 317 318 319 318 319 321 321 319 318 314 308 302 297 292 286 282 279 277 276 274 273 272 271 271 271 271 269 265 266 269 268 266 266 267 268 268 268 270 272 268 267 271 273 274 276 272 263 260 263 264 266 266 263 263 265 263 259 255 249
301 302 304 305 305 306 307 309 310 309 309 308 308 308 308 307 306 305 304 305 305 306 308 309 310 313 315 317 320 321 321 322 323 323 322 320 316 311 308 303 298 294 289 285 282 279 277 275 274 272 271 271 269 266 263 263 263 264 265 265 263 264 266 270 270 269 270 272 273 275 278 272 263 262 266 265 266 268 267 266 265 261 258 254 245
297 298 300 302 304 304 303 303 302 302 301 302 304 306 307 307 307 306 305 304 304 305 307 308 308 310 313 316 319 322 323 324 327 329 328 325 323 319 316 313 310 308 304 299 295 290 286 283 281 280 278 276 274 273 269 264 260 259 260 261 261 263 269 271 270 271 275 275 274 275 276 272 267 266 267 266 267 269 268 265 262 258 255 251 243
296 296 298 300 304 306 305 303 301 299 299 299 301 304 308 309 309 309 309 308 307 308 309 310 310 311 314 316 318 320 323 324 328 333 332 330 328 327 325 323 319 316 313 311 309 306 301 297 292 290 288 285 283 282 279 276 271 264 261 259 259 263 268 270 270 272 274 273 273 273 272 270 267 266 267 267 268 269 266 262 258 253 248 247 245
295 296 297 299 302 305 307 306 303 301 301 300 299 301 306 308 309 310 311 310 310 310 311 312 312 312 314 316 318 320 321 322 325 330 331 330 331 332 332 330 327 323 318 316 315 313 311 308 304 299 295 291 289 286 283 279 276 272 270 268 266 267 267 267 268 271 271 270 270 270 269 268 268 269 269 268 267 269 268 265 260 254 247 245 247
296 297 297 298 300 302 305 307 306 304 303 302 300 300 301 304 306 308 310 311 310 310 311 312 312 311 311 313 315 318 319 320 323 326 326 326 328 330 330 330 330 328 323 320 319 316 314 312 310 307 303 299 295 292 289 283 275 270 270 272 273 273 271 268 267 268 269 270 270 269 268 268 269 268 265 264 267 269 269 267 263 256 250 247 245
298 300 300 300 300 301 303 305 306 306 305 305 303 301 301 301 302 304 306 308 308 309 310 311 311 310 309 310 311 314 316 317 321 324 323 321 322 323 324 325 327 326 323 322 321 319 316 314 313 311 308 305 303 300 297 291 281 273 268 267 268 269 268 268 268 269 269 268 266 267 267 267 266 265 263 265 268 267 265 265 262 256 251 248 245
300 302 303 302 302 302 302 303 305 306 308 308 306 304 303 303 301 300 301 303 306 308 309 310 310 309 309 309 309 311 313 314 318 322 321 318 318 318 319 321 322 322 321 320 320 319 317 315 314 313 311 309 307 305 302 298 290 280 271 266 264 264 262 264 266 268 268 264 262 265 268 268 268 266 266 267 268 266 263 261 257 251 247 244 242
302 303 303 304 304 303 303 303 303 304 305 306 306 306 305 304 302 301 302 304 306 308 308 309 309 309 309 309 308 309 311 312 315 319 319 316 316 317 316 316 318 317 316 317 317 316 315 314 313 312 311 310 309 307 306 304 298 287 276 266 262 261 261 262 264 264 266 268 270 271 273 274 274 272 270 268 268 268 264 258 252 248 244 240 238
303 304 305 306 306 306 306 305 303 303 303 304 304 303 303 303 302 302 304 306 307 307 306 306 308 310 310 309 308 308 309 311 315 317 317 316 315 315 315 314 314 314 313 314 315 313 313 312 311 310 310 310 310 309 307 306 303 296 284 271 264 262 263 265 267 265 265 269 273 275 275 275 274 273 271 270 270 269 266 260 254 250 246 241 238
303 305 305 306 306 307 307 306 306 305 304 304 304 304 305 305 304 303 305 308 308 307 305 304 305 309 310 309 308 308 307 310 314 315 314 314 314 313 313 312 312 312 312 311 311 310 309 309 310 310 310 310 309 308 307 306 304 301 293 280 268 265 265 267 269 269 269 270 274 277 278 275 273 272 271 271 270 267 264 260 255 251 248 244 239
303 303 304 304 304 305 305 305 305 305 304 304 304 303 304 306 306 305 305 307 308 307 305 304 305 307 307 307 309 309 306 308 312 312 311 311 310 310 310 309 309 309 309 308 307 305 304 305 306 307 308 309 310 310 309 308 306 303 300 293 280 270 268 268 270 272 274 276 276 278 280 278 275 273 271 269 268 264 260 255 251 246 243 241 238
300 301 301 302 302 303 304 304 304 305 305 304 304 302 301 302 302 302 303 304 305 305 304 303 304 305 304 303 305 305 303 304 306 307 306 307 306 306 305 304 304 303 303 303 302 300 299 300 301 303 304 305 306 308 309 309 308 305 303 299 292 282 274 271 272 274 277 278 278 277 279 278 276 275 274 271 269 265 259 252 247 242 238 235 232
298 299 299 300 301 302 302 303 303 304 304 304 304 304 302 300 299 299 300 301 302 302 302 302 302 303 302 300 300 300 299 299 301 302 303 304 304 303 302 301 300 299 299 299 297 295 295 296 297 298 300 301 302 304 306 306 306 305 303 300 297 292 285 278 276 276 277 279 279 278 277 275 274 275 276 275 272 268 261 253 246 240 236 234 232
298 298 298 299 300 300 301 302 303 303 304 304 304 305 305 303 301 300 300 300 300 300 300 300 299 299 299 298 297 296 296 296 296 298 300 302 303 303 302 302 301 300 299 297 294 293 293 294 294 295 297 297 298 300 301 301 302 302 302 300 298 296 293 288 284 280 277 278 278 278 276 274 272 272 273 271 268 264 257 250 243 237 232 231 230
296 296 296 297 297 298 299 300 301 302 303 303 304 304 304 304 304 303 302 302 301 301 301 300 300 300 299 298 297 296 295 295 295 295 297 299 301 302 302 301 302 302 301 299 296 294 294 294 293 293 295 295 295 296 297 298 300 300 300 299 298 296 296 295 291 284 278 277 278 277 276 274 271 269 267 265 263 259 254 246 238 231 228 227 225
294 294 294 295 295 295 296 298 299 300 300 301 302 302 301 302 302 302 302 302 302 302 303 303 303 302 301 300 299 297 296 296 297 297 298 298 300 302 301 300 300 301 302 302 300 298 297 296 295 295 295 295 294 295 296 297 298 299 298 298 297 296 296 295 291 285 281 278 276 275 274 273 270 267 265 263 260 256 251 244 235 229 227 227 224
292 292 292 292 293 293 295 295 296 297 297 298 299 299 299 300 300 300 300 301 301 301 302 303 304 305 304 303 302 300 299 298 297 298 299 300 301 303 302 300 299 301 303 305 305 304 304 303 301 301 300 299 297 297 297 297 297 298 297 297 296 294 293 290 287 285 282 278 276 275 275 273 270 267 265 262 258 254 249 243 236 231 229 228 224
293 292 292 292 292 293 294 294 295 295 295 296 297 297 298 299 299 299 300 300 300 301 302 304 307 308 307 307 307 306 304 302 300 299 299 301 303 304 302 300 301 304 305 306 307 307 307 307 306 306 305 304 302 300 299 297 297 296 295 294 293 291 288 286 285 284 282 279 277 275 274 272 269 266 263 259 256 253 248 243 238 233 231 228 224
294 293 293 294 294 294 293 293 294 294 294 295 295 296 298 299 299 300 300 300 301 302 303 305 308 309 309 312 315 314 310 308 306 305 304 304 305 304 301 300 302 303 304 305 307 307 306 305 306 305 304 303 302 300 299 297 296 295 293 292 289 287 286 284 284 283 281 279 277 275 273 271 269 265 262 258 255 250 246 242 238 234 230 226 221
293 293 293 294 294 294 293 292 292 292 293 294 295 297 298 299 300 301 301 301 303 303 304 307 309 310 311 314 314 312 309 310 311 310 310 309 307 303 301 299 299 299 300 301 302 303 303 303 304 303 302 301 299 298 297 295 294 293 291 290 288 286 285 284 282 280 278 277 276 274 272 270 267 264 261 257 254 250 245 241 237 231 225 221 218
292 292 292 293 292 292 291 291 291 291 292 293 295 296 297 298 299 300 301 302 304 304 305 307 308 308 309 310 311 312 313 314 314 314 313 311 308 303 299 296 293 292 293 295 298 299 299 300 301 301 301 300 299 298 297 295 293 292 291 290 288 286 285 283 281 279 278 277 275 274 272 269 267 264 260 256 252 249 244 239 234 229 224 220 216
293 293 293 292 292 291 291 292 293 295 296 296 296 297 297 298 299 301 303 305 305 304 304 304 305 307 309 311 314 316 313 310 308 307 306 305 304 301 299 296 293 291 290 290 290 289 289 288 289 291 292 292 292 293 293 293 292 292 290 289 288 286 284 283 282 280 279 278 276 274 271 269 266 263 259 255 251 247 242 237 232 227 222 217 212
296 296 295 295 295 295 294 295 295 296 297 298 298 299 299 300 302 304 305 304 303 303 304 306 308 311 313 312 310 307 304 303 304 304 304 304 303 301 299 295 291 288 286 285 284 284 284 284 286 287 288 289 288 288 288 289 289 290 289 288 287 285 284 283 281 279 279 277 275 273 270 268 265 261 257 253 248 242 237 233 227 222 216 212 207
301 300 300 300 300 300 298 297 297 297 297 298 300 302 304 307 308 307 304 303 304 306 309 310 310 310 308 307 306 306 306 306 306 306 305 304 302 299 297 294 291 288 287 287 287 287 286 286 286 287 289 290 289 289 288 287 287 288 288 287 286 285 284 283 281 279 278 276 274 272 269 266 263 259 255 250 245 238 232 228 222 216 211 206 204
306 306 306 306 305 303 301 299 298 297 298 298 300 304 307 307 305 303 303 304 306 308 307 306 306 307 308 308 310 310 309 308 307 306 305 303 302 301 300 298 297 295 293 291 290 289 288 287 287 287 288 289 289 289 289 287 287 288 288 287 287 285 284 283 281 279 277 275 273 270 267 263 260 255 250 245 240 234 229 223 217 211 207 204 202
313 311 310 308 306 303 300 298 297 299 302 304 305 305 304 302 301 302 303 304 305 305 305 307 309 312 313 314 314 314 313 312 311 310 309 308 307 307 306 305 303 301 298 296 294 291 290 288 288 288 288 288 289 288 288 287 287 287 287 287 286 285 284 283 281 280 278 276 273 269 265 260 256 251 245 241 236 230 224 219 213 207 204 202 200
321 320 319 317 314 312 311 311 311 311 311 310 308 306 304 303 304 306 307 308 309 312 315 318 321 323 323 325 326 325 324 322 321 319 318 318 317 316 315 315 314 312 310 307 304 301 298 297 295 294 293 292 292 292 291 290 288 287 287 287 286 285 284 284 283 282 280 277 273 269 264 259 254 248 243 238 233 227 222 216 211 206 203 201 198
335 337 337 337 336 335 334 332 329 325 322 319 319 321 324 325 324 326 328 330 336 341 345 347 348 348 346 345 346 347 346 344 343 341 339 337 335 334 333 332 331 329 327 325 321 318 315 313 310 308 306 303 301 299 297 295 293 292 291 289 288 287 286 286 285 283 281 277 274 269 264 258 252 247 241 236 230 225 220 215 211 207 203 201 199
342 345 348 351 353 351 349 347 345 345 348 349 351 356 359 359 359 2 4 7 9 11 11 11 11 10 9 9 10 12 14 14 13 12 10 7 4 3 2 360 358 355 350 346 342 338 334 330 326 323 319 316 313 310 307 305 303 301 299 298 295 294 292 291 288 286 283 279 274 269 263 256 250 243 237 231 226 221 216 212 208 205 202 200 197
339 342 347 356 1 0 360 2 3 5 7 9 12 15 17 17 17 17 17 18 20 19 18 18 18 18 20 20 20 20 21 22 22 22 23 22 22 22 20 19 17 14 10 7 4 360 356 352 348 343 338 333 329 326 323 321 319 316 314 311 308 307 305 303 299 294 287 280 273 265 258 253 247 241 234 228 223 219 214 210 205 201 199 196 193
338 339 343 347 350 352 354 358 0 1 2 3 6 9 11 11 10 9 8 10 13 13 13 13 14 16 18 19 19 18 18 18 19 19 20 21 23 24 23 21 20 19 18 17 16 14 12 10 7 3 359 354 349 344 341 338 336 333 331 329 326 323 320 316 310 302 293 282 270 259 251 244 239 234 229 223 218 214 210 206 201 198 194 192 191
334 335 336 337 339 340 342 346 349 351 351 352 354 357 359 1 1 1 1 2 4 6 6 6 8 8 9 10 12 13 12 12 13 13 14 14 16 17 16 15 16 16 16 16 17 16 16 16 15 14 12 9 6 3 359 354 350 346 342 339 337 335 331 326 320 311 300 286 270 257 247 239 233 227 221 215 211 208 205 202 198 195 193 192 193
327 327 328 330 333 334 335 338 342 343 344 346 349 351 354 355 356 357 357 357 358 360 0 0 1 3 2 2 3 4 5 6 6 6 6 7 9 9 10 10 9 9 9 10 11 11 12 13 14 14 14 14 15 14 13 11 8 4 358 352 347 344 341 336 329 319 305 289 272 256 244 236 230 224 217 211 207 204 201 198 195 193 193 195 197